Terug naar catalogus

STARLINK-37725

ActiefCommunicatieSSO
NORAD 69224·PAYLOAD·🇺🇸 United States

Gelanceerd May 26, 2026 vanaf Vandenberg Space Force Base

Loading…

Volgende Passages (komende 24 uur)

TLE

VersSource: CelesTrak SupGP

Epoch: Sep 15, 2026, 03:25 UTC

1 69224C 26115P   26258.14284722 -.00060945  00000+0 -18920-2 0  2586
2 69224  97.2833 274.3243 0001473 108.6678 128.3994 15.33467333    18

Volg STARLINK-37725 in realtime met AllMySat

Download on the App Store